EZY21BG EGGD-EGNS

Flight info

Callsign EZY21BG
Flight time 0h 35m
Altitude 24000
Route BCN P69 DIZIM N864 WAL M146 LUSOD DCT IOM
Aircraft A320/M-SDE3FGHIRWY/LB1

Departure

Time 2026-04-26 19:23
Airport Bristol Airport (EGGD)

Arrival

Time 2026-04-26 19:58
Airport Isle of Man Airport (EGNS)
Time Latitude Longitude Altitude Speed Heading
2026-04-26 18:41 51.38523 -2.71078 612 ft 0 kts 356°
2026-04-26 19:05 51.38493 -2.71075 618 ft 2 kts 356°
2026-04-26 19:05 51.38472 -2.71071 614 ft 4 kts 324°
2026-04-26 19:05 51.38462 -2.71040 614 ft 4 kts 267°
2026-04-26 19:06 51.38462 -2.71022 614 ft 0 kts 266°
2026-04-26 19:08 51.38462 -2.71023 614 ft 1 kts 266°
2026-04-26 19:09 51.38459 -2.71111 623 ft 15 kts 266°
2026-04-26 19:09 51.38451 -2.71321 615 ft 20 kts 266°
2026-04-26 19:09 51.38442 -2.71573 608 ft 25 kts 266°
2026-04-26 19:09 51.38431 -2.71862 606 ft 19 kts 270°
2026-04-26 19:10 51.38432 -2.72026 605 ft 14 kts 266°
2026-04-26 19:10 51.38430 -2.72068 618 ft 0 kts 266°
2026-04-26 19:11 51.38430 -2.72072 605 ft 3 kts 267°
2026-04-26 19:11 51.38425 -2.72216 608 ft 21 kts 266°
2026-04-26 19:11 51.38414 -2.72504 612 ft 27 kts 266°
2026-04-26 19:11 51.38401 -2.72825 607 ft 30 kts 266°
2026-04-26 19:12 51.38391 -2.73088 605 ft 14 kts 266°
2026-04-26 19:12 51.38390 -2.73110 606 ft 0 kts 266°
2026-04-26 19:14 51.38389 -2.73126 619 ft 7 kts 266°
2026-04-26 19:15 51.38388 -2.73166 608 ft 0 kts 266°
2026-04-26 19:20 51.38383 -2.73233 617 ft 14 kts 260°
2026-04-26 19:20 51.38290 -2.73340 619 ft 19 kts 177°
2026-04-26 19:21 51.38215 -2.73228 634 ft 12 kts 96°
2026-04-26 19:21 51.38216 -2.73212 624 ft 0 kts 86°
2026-04-26 19:22 51.38216 -2.73205 635 ft 5 kts 86°
2026-04-26 19:22 51.38235 -2.72780 630 ft 78 kts 86°
2026-04-26 19:22 51.38282 -2.71521 616 ft 146 kts 87°
2026-04-26 19:23 51.38344 -2.69734 1049 ft 165 kts 88°
2026-04-26 19:23 51.38411 -2.67892 1849 ft 170 kts 87°
2026-04-26 19:23 51.38488 -2.65863 2165 ft 195 kts 87°
2026-04-26 19:23 51.38556 -2.63600 2493 ft 219 kts 88°
2026-04-26 19:24 51.38627 -2.61018 2951 ft 244 kts 87°
2026-04-26 19:24 51.38711 -2.58235 3722 ft 255 kts 85°
2026-04-26 19:24 51.40707 -2.53787 5467 ft 269 kts 19°
2026-04-26 19:25 51.42564 -2.53654 6362 ft 274 kts 344°
2026-04-26 19:25 51.43169 -2.54012 6668 ft 275 kts 332°
2026-04-26 19:25 51.45349 -2.57651 8132 ft 277 kts 301°
2026-04-26 19:25 51.46300 -2.60353 9029 ft 279 kts 296°
2026-04-26 19:26 51.47193 -2.63091 9937 ft 282 kts 296°
2026-04-26 19:26 51.48142 -2.65895 10589 ft 295 kts 297°
2026-04-26 19:26 51.49209 -2.68853 10920 ft 316 kts 299°
2026-04-26 19:26 51.50380 -2.71902 11564 ft 325 kts 300°
2026-04-26 19:27 51.51608 -2.74967 12340 ft 329 kts 301°
2026-04-26 19:27 51.52876 -2.78057 13129 ft 332 kts 301°
2026-04-26 19:27 51.54165 -2.81174 13897 ft 337 kts 301°
2026-04-26 19:27 51.55460 -2.84321 14648 ft 339 kts 301°
2026-04-26 19:28 51.56777 -2.87500 15108 ft 342 kts 302°
2026-04-26 19:28 51.58078 -2.90683 15260 ft 341 kts 300°
2026-04-26 19:28 51.59354 -2.93875 15712 ft 346 kts 300°
2026-04-26 19:28 51.60671 -2.97131 16396 ft 348 kts 301°
2026-04-26 19:29 51.62013 -3.00410 17076 ft 353 kts 300°
2026-04-26 19:29 51.63368 -3.03719 17766 ft 358 kts 301°
2026-04-26 19:29 51.64744 -3.07099 18467 ft 361 kts 301°
2026-04-26 19:29 51.66122 -3.10486 19043 ft 364 kts 300°
2026-04-26 19:30 51.67523 -3.13906 19616 ft 367 kts 301°
2026-04-26 19:30 51.68934 -3.17348 20161 ft 369 kts 301°
2026-04-26 19:30 51.70621 -3.20530 20676 ft 379 kts 315°
2026-04-26 19:30 51.72015 -3.22252 21026 ft 384 kts 324°
2026-04-26 19:31 51.75350 -3.24489 21732 ft 396 kts 345°
2026-04-26 19:31 51.78116 -3.24856 22251 ft 405 kts
2026-04-26 19:31 51.80890 -3.24265 22764 ft 410 kts
2026-04-26 19:31 51.83718 -3.23563 23277 ft 413 kts
2026-04-26 19:32 51.86569 -3.22857 23787 ft 416 kts
2026-04-26 19:32 51.89440 -3.22126 24160 ft 422 kts
2026-04-26 19:32 51.92351 -3.21432 24220 ft 422 kts
2026-04-26 19:32 51.95165 -3.20749 24283 ft 405 kts
2026-04-26 19:33 51.97929 -3.20072 24278 ft 398 kts
2026-04-26 19:33 52.00660 -3.19389 24292 ft 397 kts
2026-04-26 19:33 52.03374 -3.18719 24299 ft 391 kts
2026-04-26 19:33 52.06077 -3.18365 24292 ft 390 kts
2026-04-26 19:34 52.08793 -3.18144 24291 ft 390 kts
2026-04-26 19:34 52.11468 -3.17942 24288 ft 391 kts
2026-04-26 19:34 52.14183 -3.17738 24295 ft 390 kts
2026-04-26 19:34 52.16896 -3.17532 24273 ft 391 kts 360°
2026-04-26 19:35 52.19614 -3.17331 24282 ft 391 kts 360°
2026-04-26 19:35 52.22357 -3.17137 24241 ft 405 kts 359°
2026-04-26 19:35 52.25231 -3.16928 24292 ft 422 kts
2026-04-26 19:35 52.28220 -3.16705 24276 ft 437 kts
2026-04-26 19:36 52.31291 -3.16467 24279 ft 448 kts
2026-04-26 19:36 52.32304 -3.16389 24281 ft 449 kts
2026-04-26 19:36 52.37584 -3.15956 24302 ft 461 kts
2026-04-26 19:36 52.40805 -3.15698 24304 ft 465 kts
2026-04-26 19:37 52.44044 -3.15442 24275 ft 466 kts
2026-04-26 19:37 52.47284 -3.15194 24289 ft 467 kts
2026-04-26 19:37 52.50539 -3.14945 24286 ft 467 kts
2026-04-26 19:37 52.53771 -3.14701 24288 ft 465 kts
2026-04-26 19:38 52.57015 -3.14454 24280 ft 466 kts
2026-04-26 19:38 52.60254 -3.14205 24306 ft 466 kts
2026-04-26 19:38 52.63493 -3.13949 24276 ft 466 kts
2026-04-26 19:38 52.66695 -3.13681 24251 ft 468 kts
2026-04-26 19:39 52.69944 -3.13423 24264 ft 468 kts 360°
2026-04-26 19:39 52.73180 -3.13611 24270 ft 464 kts 351°
2026-04-26 19:39 52.76364 -3.14358 24285 ft 463 kts 349°
2026-04-26 19:39 52.79554 -3.15123 24285 ft 463 kts 350°
2026-04-26 19:40 52.82727 -3.15863 24260 ft 461 kts 349°
2026-04-26 19:40 52.85901 -3.16624 24265 ft 461 kts 349°
2026-04-26 19:40 52.89086 -3.17232 24261 ft 462 kts 355°
2026-04-26 19:40 52.92306 -3.17160 24263 ft 464 kts
2026-04-26 19:41 52.95533 -3.16905 24267 ft 464 kts
2026-04-26 19:41 52.98760 -3.16654 24282 ft 465 kts
2026-04-26 19:41 53.01951 -3.16406 24272 ft 465 kts
2026-04-26 19:41 53.03039 -3.16321 24272 ft 465 kts
2026-04-26 19:42 53.08408 -3.15900 24266 ft 465 kts
2026-04-26 19:42 53.11642 -3.15638 24269 ft 467 kts
2026-04-26 19:42 53.14885 -3.15381 24262 ft 466 kts
2026-04-26 19:42 53.18133 -3.15116 24249 ft 465 kts
2026-04-26 19:43 53.20271 -3.14940 24251 ft 465 kts
2026-04-26 19:43 53.23499 -3.14678 24247 ft 464 kts
2026-04-26 19:43 53.26730 -3.14419 24244 ft 464 kts
2026-04-26 19:43 53.31003 -3.14075 24245 ft 463 kts 360°
2026-04-26 19:44 53.34202 -3.14345 24233 ft 459 kts 349°
2026-04-26 19:44 53.37303 -3.15539 24261 ft 457 kts 339°
2026-04-26 19:44 53.39310 -3.16813 24265 ft 457 kts 333°
2026-04-26 19:44 53.42057 -3.19321 24291 ft 453 kts 323°
2026-04-26 19:45 53.44526 -3.22541 24317 ft 446 kts 314°
2026-04-26 19:45 53.46733 -3.26191 24285 ft 443 kts 312°
2026-04-26 19:45 53.48905 -3.29888 24261 ft 448 kts 312°
2026-04-26 19:45 53.51076 -3.33626 24326 ft 443 kts 310°
2026-04-26 19:46 53.53934 -3.38577 24273 ft 449 kts 310°
2026-04-26 19:46 53.56117 -3.42317 24237 ft 446 kts 310°
2026-04-26 19:46 53.57573 -3.44864 24271 ft 445 kts 307°
2026-04-26 19:46 53.59409 -3.48963 24212 ft 428 kts 303°
2026-04-26 19:47 53.61087 -3.53007 23072 ft 428 kts 303°
2026-04-26 19:47 53.62242 -3.55783 22525 ft 427 kts 303°
2026-04-26 19:47 53.64498 -3.61172 21567 ft 422 kts 303°
2026-04-26 19:47 53.66188 -3.65195 20828 ft 419 kts 303°
2026-04-26 19:48 53.67870 -3.69199 19976 ft 419 kts 303°
2026-04-26 19:48 53.69560 -3.73233 18803 ft 421 kts 304°
2026-04-26 19:48 53.71247 -3.77265 17265 ft 420 kts 304°
2026-04-26 19:48 53.72897 -3.81220 16167 ft 402 kts 304°
2026-04-26 19:49 53.74506 -3.85093 14597 ft 403 kts 303°
2026-04-26 19:49 53.76108 -3.88946 13247 ft 397 kts 303°
2026-04-26 19:49 53.77681 -3.92733 11925 ft 390 kts 303°
2026-04-26 19:49 53.79198 -3.96401 10628 ft 383 kts 302°
2026-04-26 19:50 53.80692 -4.00021 9919 ft 363 kts 302°
2026-04-26 19:50 53.82076 -4.03362 9669 ft 330 kts 303°
2026-04-26 19:50 53.83340 -4.06408 9539 ft 303 kts 303°
2026-04-26 19:50 53.84508 -4.09242 9249 ft 285 kts 302°
2026-04-26 19:51 53.85623 -4.11980 8991 ft 283 kts 302°
2026-04-26 19:51 53.86748 -4.14742 8519 ft 286 kts 302°
2026-04-26 19:51 53.87877 -4.17490 8197 ft 282 kts 302°
2026-04-26 19:51 53.88977 -4.20176 7805 ft 281 kts 302°
2026-04-26 19:52 53.90083 -4.22891 7391 ft 279 kts 302°
2026-04-26 19:52 53.91179 -4.25580 6763 ft 275 kts 302°
2026-04-26 19:52 53.92267 -4.28240 6063 ft 274 kts 302°
2026-04-26 19:52 53.93458 -4.30732 5416 ft 271 kts 315°
2026-04-26 19:53 53.95010 -4.32534 4890 ft 273 kts 333°
2026-04-26 19:53 53.96830 -4.33494 4486 ft 274 kts 346°
2026-04-26 19:53 53.98681 -4.34183 4105 ft 271 kts 346°
2026-04-26 19:53 54.00510 -4.34878 3725 ft 264 kts 346°
2026-04-26 19:54 54.02229 -4.35545 3350 ft 250 kts 346°
2026-04-26 19:54 54.03866 -4.36177 3153 ft 232 kts 346°
2026-04-26 19:54 54.05411 -4.36769 3039 ft 224 kts 345°
2026-04-26 19:54 54.06875 -4.37337 2927 ft 210 kts 345°
2026-04-26 19:55 54.08245 -4.38043 2656 ft 207 kts 332°
2026-04-26 19:55 54.09382 -4.39460 2435 ft 197 kts 312°
2026-04-26 19:55 54.10139 -4.41354 2268 ft 190 kts 294°
2026-04-26 19:55 54.10482 -4.43465 2079 ft 182 kts 275°
2026-04-26 19:56 54.10417 -4.45601 1864 ft 180 kts 258°
2026-04-26 19:56 54.10162 -4.47652 1637 ft 179 kts 258°
2026-04-26 19:56 54.09908 -4.49711 1409 ft 177 kts 258°
2026-04-26 19:56 54.09654 -4.51760 1185 ft 175 kts 257°
2026-04-26 19:57 54.09410 -4.53704 951 ft 161 kts 257°
2026-04-26 19:57 54.09180 -4.55503 767 ft 149 kts 257°
2026-04-26 19:57 54.08970 -4.57192 570 ft 143 kts 258°
2026-04-26 19:57 54.08774 -4.58835 380 ft 139 kts 257°
2026-04-26 19:58 54.08568 -4.60451 161 ft 139 kts 258°
2026-04-26 19:58 54.08373 -4.62021 43 ft 132 kts 258°
2026-04-26 19:58 54.08228 -4.63188 40 ft 59 kts 258°
2026-04-26 19:58 54.08170 -4.63661 36 ft 24 kts 262°
2026-04-26 19:59 54.08158 -4.63828 35 ft 0 kts 257°
2026-04-26 19:59 54.08163 -4.63875 33 ft 11 kts 302°
2026-04-26 19:59 54.08250 -4.63869 43 ft 12 kts 50°
2026-04-26 19:59 54.08285 -4.63761 44 ft 11 kts 60°
2026-04-26 20:00 54.08335 -4.63592 47 ft 16 kts 71°
2026-04-26 20:00 54.08365 -4.63413 40 ft 14 kts 62°
2026-04-26 20:00 54.08413 -4.63387 43 ft 7 kts 354°
2026-04-26 20:00 54.08497 -4.63340 46 ft 12 kts 26°
2026-04-26 20:01 54.08557 -4.63361 46 ft 7 kts 13°
2026-04-26 20:01 54.08581 -4.63330 46 ft 3 kts 43°
2026-04-26 20:01 54.08589 -4.63316 44 ft 0 kts 44°